Time,TemperatureF,DewpointF,PressureIn,WindDirection,WindDirectionDegrees,WindSpeedMPH,WindSpeedGustMPH,Humidity,HourlyPrecipIn,Conditions,Clouds,dailyrainin,SoftwareType,DateUTC
2013-04-05 00:00:00,45.8,45.2,29.97,NNW,338,4.5,4.9,98,0.00,,---,0.00,VWS V14.01,2013-04-05 05:00:00,
2013-04-05 00:05:00,45.8,45.2,29.97,NNW,338,4.9,4.9,98,0.00,,---,0.00,VWS V14.01,2013-04-05 05:05:00,
2013-04-05 00:10:00,45.8,45.2,29.97,WNW,292,2.9,2.9,98,0.00,,---,0.00,VWS V14.01,2013-04-05 05:10:00,
2013-04-05 00:15:00,45.8,45.2,29.97,NW,315,2.9,2.9,98,0.00,,---,0.00,VWS V14.01,2013-04-05 05:15:00,
2013-04-05 00:20:00,45.8,45.2,29.97,NNE,22,3.4,3.4,98,0.00,,---,0.00,VWS V14.01,2013-04-05 05:20:00,
2013-04-05 00:25:00,45.8,45.2,29.97,NNW,338,3.4,3.6,98,0.00,,---,0.00,VWS V14.01,2013-04-05 05:25:00,
2013-04-05 00:30:00,45.8,45.2,29.97,NNE,22,2.5,3.8,98,0.00,,---,0.00,VWS V14.01,2013-04-05 05:30:00,
2013-04-05 00:35:00,45.6,45.1,29.97,NNW,338,3.1,3.1,98,0.00,,---,0.00,VWS V14.01,2013-04-05 05:35:00,
2013-04-05 00:40:00,45.6,45.1,29.97,NNW,338,1.3,3.6,98,0.00,,---,0.00,VWS V14.01,2013-04-05 05:40:00,
2013-04-05 00:45:00,45.6,45.1,29.97,WNW,292,2.7,5.8,98,0.00,,---,0.00,VWS V14.01,2013-04-05 05:45:00,
2013-04-05 00:50:00,45.6,45.1,29.97,NNW,338,3.8,4.0,98,0.00,,---,0.00,VWS V14.01,2013-04-05 05:50:00,
2013-04-05 00:55:00,45.4,44.9,29.97,NW,315,2.7,4.3,98,0.00,,---,0.00,VWS V14.01,2013-04-05 05:55:00,
2013-04-05 01:00:00,45.6,45.1,29.97,NW,315,4.9,6.3,98,0.00,,---,0.00,VWS V14.01,2013-04-05 06:00:00,
2013-04-05 01:05:00,45.4,44.9,29.97,North,0,3.6,4.9,98,0.00,,---,0.00,VWS V14.01,2013-04-05 06:05:00,
2013-04-05 01:10:00,45.6,45.1,29.97,WNW,292,2.9,2.9,98,0.00,,---,0.00,VWS V14.01,2013-04-05 06:10:00,
2013-04-05 01:15:00,45.4,44.9,29.97,West,270,0.0,0.9,98,0.00,,---,0.00,VWS V14.01,2013-04-05 06:15:00,
2013-04-05 01:20:00,45.4,44.9,29.97,NW,315,3.4,5.4,98,0.00,,---,0.00,VWS V14.01,2013-04-05 06:20:00,
2013-04-05 01:26:00,45.2,44.7,29.97,NW,315,0.9,0.9,98,0.00,,---,0.00,VWS V14.01,2013-04-05 06:26:00,
2013-04-05 01:31:00,45.2,44.7,29.97,North,0,3.4,4.3,98,0.00,,---,0.00,VWS V14.01,2013-04-05 06:31:00,
2013-04-05 01:36:00,45.2,44.7,29.97,NNW,338,0.0,2.9,98,0.00,,---,0.00,VWS V14.01,2013-04-05 06:36:00,
2013-04-05 01:41:00,45.2,44.7,29.97,NNW,338,2.0,4.9,98,0.00,,---,0.00,VWS V14.01,2013-04-05 06:41:00,
2013-04-05 01:46:00,45.2,44.7,29.97,NW,315,5.6,5.6,98,0.00,,---,0.00,VWS V14.01,2013-04-05 06:46:00,
2013-04-05 01:51:00,45.2,44.7,29.97,NNW,338,3.4,3.4,98,0.00,,---,0.00,VWS V14.01,2013-04-05 06:51:00,
2013-04-05 01:56:00,45.2,44.7,29.97,North,0,2.2,3.6,98,0.00,,---,0.00,VWS V14.01,2013-04-05 06:56:00,
2013-04-05 02:01:00,45.2,44.7,29.97,NNW,338,2.7,2.7,98,0.00,,---,0.00,VWS V14.01,2013-04-05 07:01:00,
2013-04-05 02:06:00,45.2,44.7,29.97,West,270,2.7,3.6,98,0.00,,---,0.00,VWS V14.01,2013-04-05 07:06:00,
2013-04-05 02:11:00,45.2,44.7,29.97,NNW,338,2.2,3.1,98,0.00,,---,0.00,VWS V14.01,2013-04-05 07:11:00,
2013-04-05 02:16:00,45.2,44.7,29.97,North,0,3.4,5.6,98,0.00,,---,0.00,VWS V14.01,2013-04-05 07:16:00,
2013-04-05 02:21:00,45.4,44.9,29.97,WNW,292,2.7,2.9,98,0.00,,---,0.00,VWS V14.01,2013-04-05 07:21:00,
2013-04-05 02:27:00,45.2,44.7,29.97,NNW,338,1.1,2.9,98,0.00,,---,0.00,VWS V14.01,2013-04-05 07:27:00,
2013-04-05 02:32:00,45.4,44.9,29.97,NNW,338,0.0,2.7,98,0.00,,---,0.00,VWS V14.01,2013-04-05 07:32:00,
2013-04-05 02:37:00,45.2,44.7,29.97,NNW,338,2.9,3.6,98,0.00,,---,0.00,VWS V14.01,2013-04-05 07:37:00,
2013-04-05 02:42:00,45.4,44.9,29.97,North,0,2.0,3.4,98,0.00,,---,0.00,VWS V14.01,2013-04-05 07:42:00,
2013-04-05 02:47:00,45.2,44.7,30.00,NNE,22,3.1,4.5,98,0.00,,---,0.00,VWS V14.01,2013-04-05 07:47:00,
2013-04-05 02:52:00,45.2,44.7,30.00,NNW,338,7.2,7.2,98,0.00,,---,0.00,VWS V14.01,2013-04-05 07:52:00,
2013-04-05 02:57:00,45.2,44.7,30.00,NNW,338,1.6,2.5,98,0.00,,---,0.00,VWS V14.01,2013-04-05 07:57:00,
2013-04-05 03:02:00,45.2,44.7,30.00,NNW,338,3.8,3.8,98,0.00,,---,0.00,VWS V14.01,2013-04-05 08:02:00,
2013-04-05 03:07:00,45.2,44.7,30.00,NNW,338,5.4,5.4,98,0.00,,---,0.00,VWS V14.01,2013-04-05 08:07:00,
2013-04-05 03:12:00,45.2,44.7,30.00,WNW,292,1.1,2.9,98,0.00,,---,0.00,VWS V14.01,2013-04-05 08:12:00,
2013-04-05 03:17:00,45.1,44.5,29.97,West,270,1.6,4.3,98,0.00,,---,0.00,VWS V14.01,2013-04-05 08:17:00,
2013-04-05 03:22:00,45.1,44.5,29.97,WNW,292,0.0,0.0,98,0.00,,---,0.00,VWS V14.01,2013-04-05 08:22:00,
2013-04-05 03:27:00,45.1,44.5,29.97,North,0,2.7,2.7,98,0.00,,---,0.00,VWS V14.01,2013-04-05 08:27:00,
2013-04-05 03:32:00,45.1,44.5,30.00,NNW,338,4.0,4.0,98,0.00,,---,0.00,VWS V14.01,2013-04-05 08:32:00,
2013-04-05 03:37:00,45.1,44.5,30.00,WSW,248,4.0,4.0,98,0.00,,---,0.00,VWS V14.01,2013-04-05 08:37:00,
2013-04-05 03:42:00,45.1,44.5,30.00,WNW,292,3.8,3.8,98,0.00,,---,0.00,VWS V14.01,2013-04-05 08:42:00,
2013-04-05 03:47:00,44.9,44.3,30.00,NNW,338,5.6,5.6,98,0.00,,---,0.00,VWS V14.01,2013-04-05 08:47:00,
2013-04-05 03:52:00,44.9,44.3,30.00,NNW,338,2.9,2.9,98,0.00,,---,0.00,VWS V14.01,2013-04-05 08:52:00,
2013-04-05 03:57:00,44.9,44.3,30.00,North,0,2.9,2.9,98,0.00,,---,0.00,VWS V14.01,2013-04-05 08:57:00,
2013-04-05 04:02:00,44.9,44.3,30.00,NW,315,2.0,2.5,98,0.00,,---,0.00,VWS V14.01,2013-04-05 09:02:00,
2013-04-05 04:07:00,44.9,44.3,30.00,North,0,1.6,1.6,98,0.00,,---,0.00,VWS V14.01,2013-04-05 09:07:00,
2013-04-05 04:12:00,44.9,44.3,30.00,NW,315,4.0,4.0,98,0.00,,---,0.00,VWS V14.01,2013-04-05 09:12:00,
2013-04-05 04:17:00,44.9,44.3,30.00,NNW,338,2.9,4.0,98,0.00,,---,0.00,VWS V14.01,2013-04-05 09:17:00,
2013-04-05 04:22:00,44.9,44.3,30.00,NNW,338,3.6,3.6,98,0.00,,---,0.00,VWS V14.01,2013-04-05 09:22:00,
2013-04-05 04:27:00,45.1,44.5,30.00,North,0,2.5,2.5,98,0.00,,---,0.00,VWS V14.01,2013-04-05 09:27:00,
2013-04-05 04:32:00,45.1,44.5,30.00,WNW,292,3.8,6.0,98,0.00,,---,0.00,VWS V14.01,2013-04-05 09:32:00,
2013-04-05 04:37:00,45.1,44.5,30.00,NW,315,3.4,3.4,98,0.00,,---,0.00,VWS V14.01,2013-04-05 09:37:00,
2013-04-05 04:42:00,45.2,44.7,30.00,NNW,338,0.0,0.0,98,0.00,,---,0.00,VWS V14.01,2013-04-05 09:42:00,
2013-04-05 04:47:00,45.2,44.7,30.00,NNW,338,2.2,2.5,98,0.00,,---,0.00,VWS V14.01,2013-04-05 09:47:00,
2013-04-05 04:52:00,45.2,44.7,30.00,NNW,338,3.8,4.3,98,0.00,,---,0.00,VWS V14.01,2013-04-05 09:52:00,
2013-04-05 04:57:00,45.2,44.7,30.00,NNE,22,2.7,3.4,98,0.00,,---,0.00,VWS V14.01,2013-04-05 09:57:00,
2013-04-05 05:02:00,45.4,44.9,30.00,WNW,292,2.9,3.8,98,0.00,,---,0.00,VWS V14.01,2013-04-05 10:02:00,
2013-04-05 05:07:00,45.4,44.9,30.00,NNW,338,1.6,3.6,98,0.00,,---,0.00,VWS V14.01,2013-04-05 10:07:00,
2013-04-05 05:13:00,45.4,44.9,30.00,West,270,4.0,4.0,98,0.00,,---,0.00,VWS V14.01,2013-04-05 10:13:00,
2013-04-05 05:18:00,45.6,45.1,30.00,NW,315,2.2,2.7,98,0.00,,---,0.00,VWS V14.01,2013-04-05 10:18:00,
2013-04-05 05:23:00,45.6,45.1,30.00,North,0,0.0,0.0,98,0.00,,---,0.00,VWS V14.01,2013-04-05 10:23:00,
2013-04-05 05:28:00,45.6,45.1,30.00,WNW,292,3.4,3.4,98,0.00,,---,0.00,VWS V14.01,2013-04-05 10:28:00,
2013-04-05 05:33:00,45.6,45.1,30.00,NW,315,4.7,4.7,98,0.00,,---,0.00,VWS V14.01,2013-04-05 10:33:00,
2013-04-05 05:38:00,45.8,45.2,30.00,NNW,338,1.3,2.9,98,0.00,,---,0.00,VWS V14.01,2013-04-05 10:38:00,
2013-04-05 05:43:00,45.8,45.2,30.00,NNW,338,0.0,2.2,98,0.00,,---,0.00,VWS V14.01,2013-04-05 10:43:00,
2013-04-05 05:48:00,45.8,45.2,30.00,NNW,338,2.0,3.1,98,0.00,,---,0.00,VWS V14.01,2013-04-05 10:48:00,
2013-04-05 05:53:00,45.8,45.2,30.00,NNW,338,2.7,2.7,98,0.00,,---,0.00,VWS V14.01,2013-04-05 10:53:00,
2013-04-05 05:58:00,45.8,45.2,30.03,WNW,292,3.6,3.6,98,0.00,,---,0.00,VWS V14.01,2013-04-05 10:58:00,
2013-04-05 06:03:00,46.0,45.4,30.03,NNW,338,2.0,2.0,98,0.00,,---,0.00,VWS V14.01,2013-04-05 11:03:00,
2013-04-05 06:08:00,46.0,45.4,30.03,WNW,292,1.6,3.8,98,0.00,,---,0.00,VWS V14.01,2013-04-05 11:08:00,
2013-04-05 06:13:00,46.0,45.4,30.03,NNW,338,2.5,2.5,98,0.00,,---,0.00,VWS V14.01,2013-04-05 11:13:00,
2013-04-05 06:18:00,46.1,45.6,30.03,WNW,292,3.6,3.6,98,0.00,,---,0.00,VWS V14.01,2013-04-05 11:18:00,
2013-04-05 06:23:00,46.1,45.6,30.03,NW,315,1.3,1.3,98,0.00,,---,0.00,VWS V14.01,2013-04-05 11:23:00,
2013-04-05 06:28:00,46.1,45.6,30.03,WNW,292,0.0,1.6,98,0.00,,---,0.00,VWS V14.01,2013-04-05 11:28:00,
2013-04-05 06:33:00,46.3,45.8,30.03,WNW,292,2.0,2.0,98,0.00,,---,0.00,VWS V14.01,2013-04-05 11:33:00,
2013-04-05 06:38:00,46.3,45.8,30.03,North,0,1.6,2.0,98,0.00,,---,0.00,VWS V14.01,2013-04-05 11:38:00,
2013-04-05 06:43:00,46.3,45.8,30.03,NNW,338,1.6,1.6,98,0.00,,---,0.00,VWS V14.01,2013-04-05 11:43:00,
2013-04-05 06:48:00,46.3,45.8,30.03,North,0,2.5,2.5,98,0.00,,---,0.00,VWS V14.01,2013-04-05 11:48:00,
2013-04-05 06:53:00,46.5,46.0,30.03,NNW,338,3.1,3.8,98,0.00,,---,0.00,VWS V14.01,2013-04-05 11:53:00,
2013-04-05 06:59:00,46.5,46.0,30.03,WNW,292,2.5,2.5,98,0.00,,---,0.00,VWS V14.01,2013-04-05 11:59:00,
2013-04-05 07:04:00,46.5,46.0,30.03,WNW,292,2.0,2.9,98,0.00,,---,0.00,VWS V14.01,2013-04-05 12:04:00,
2013-04-05 07:09:00,46.7,46.2,30.03,NNW,338,0.0,1.1,98,0.00,,---,0.00,VWS V14.01,2013-04-05 12:09:00,
2013-04-05 07:14:00,46.9,46.3,30.06,WNW,292,2.2,2.7,98,0.00,,---,0.00,VWS V14.01,2013-04-05 12:14:00,
2013-04-05 07:19:00,46.9,46.3,30.06,North,0,2.2,2.2,98,0.00,,---,0.00,VWS V14.01,2013-04-05 12:19:00,
2013-04-05 07:24:00,47.0,46.5,30.06,North,0,3.6,3.6,98,0.00,,---,0.00,VWS V14.01,2013-04-05 12:24:00,
2013-04-05 07:29:00,47.2,46.7,30.06,NNE,22,0.0,2.5,98,0.00,,---,0.00,VWS V14.01,2013-04-05 12:29:00,
2013-04-05 07:34:00,47.4,46.9,30.06,NNE,22,2.7,3.8,98,0.00,,---,0.00,VWS V14.01,2013-04-05 12:34:00,
2013-04-05 07:39:00,47.6,47.0,30.06,NE,45,2.2,2.5,98,0.00,,---,0.00,VWS V14.01,2013-04-05 12:39:00,
2013-04-05 07:44:00,47.8,47.2,30.06,North,0,0.0,1.3,98,0.00,,---,0.00,VWS V14.01,2013-04-05 12:44:00,
2013-04-05 07:49:00,47.9,47.4,30.06,NNW,338,1.3,2.9,98,0.00,,---,0.00,VWS V14.01,2013-04-05 12:49:00,
2013-04-05 07:54:00,48.1,47.6,30.06,NW,315,2.9,5.8,98,0.00,,---,0.00,VWS V14.01,2013-04-05 12:54:00,
2013-04-05 07:59:00,48.3,47.8,30.06,NNW,338,2.5,2.5,98,0.00,,---,0.00,VWS V14.01,2013-04-05 12:59:00,
2013-04-05 08:04:00,48.3,47.8,30.06,North,0,2.5,2.5,98,0.00,,---,0.00,VWS V14.01,2013-04-05 13:04:00,
2013-04-05 08:09:00,48.5,47.9,30.06,North,0,2.5,3.4,98,0.00,,---,0.00,VWS V14.01,2013-04-05 13:09:00,
2013-04-05 08:14:00,48.5,47.9,30.06,NNW,338,2.7,2.9,98,0.00,,---,0.00,VWS V14.01,2013-04-05 13:14:00,
2013-04-05 08:19:00,48.7,48.1,30.06,NNW,338,2.0,2.2,98,0.00,,---,0.00,VWS V14.01,2013-04-05 13:19:00,
2013-04-05 08:24:00,48.8,48.3,30.06,North,0,2.5,2.5,98,0.00,,---,0.00,VWS V14.01,2013-04-05 13:24:00,
2013-04-05 08:30:00,48.8,48.0,30.09,ENE,68,2.9,2.9,97,0.00,,---,0.00,VWS V14.01,2013-04-05 13:30:00,
2013-04-05 08:35:00,49.4,48.3,30.09,NE,45,4.3,4.3,96,0.00,,---,0.00,VWS V14.01,2013-04-05 13:35:00,
2013-04-05 08:40:00,49.6,48.5,30.09,NNW,338,2.9,4.3,96,0.00,,---,0.00,VWS V14.01,2013-04-05 13:40:00,
2013-04-05 08:45:00,49.6,48.2,30.09,North,0,2.7,3.6,95,0.00,,---,0.00,VWS V14.01,2013-04-05 13:45:00,
2013-04-05 08:50:00,49.6,47.9,30.09,NNE,22,0.0,2.2,94,0.00,,---,0.00,VWS V14.01,2013-04-05 13:50:00,
2013-04-05 08:55:00,49.9,48.0,30.09,NNW,338,1.3,2.5,93,0.00,,---,0.00,VWS V14.01,2013-04-05 13:55:00,
2013-04-05 09:00:00,50.5,48.8,30.09,NNE,22,3.4,4.0,94,0.00,,---,0.00,VWS V14.01,2013-04-05 14:00:00,
2013-04-05 09:05:00,51.0,48.8,30.09,North,0,2.9,3.4,92,0.00,,---,0.00,VWS V14.01,2013-04-05 14:05:00,
2013-04-05 09:10:00,51.2,48.3,30.09,NW,315,2.9,4.3,90,0.00,,---,0.00,VWS V14.01,2013-04-05 14:10:00,
2013-04-05 09:15:00,51.4,48.2,30.09,NNW,338,5.4,5.4,89,0.00,,---,0.00,VWS V14.01,2013-04-05 14:15:00,
2013-04-05 09:20:00,51.5,48.1,30.09,NW,315,5.4,5.4,88,0.00,,---,0.00,VWS V14.01,2013-04-05 14:20:00,
2013-04-05 09:25:00,52.1,48.6,30.09,NNW,338,0.0,0.0,88,0.00,,---,0.00,VWS V14.01,2013-04-05 14:25:00,
2013-04-05 09:30:00,52.4,49.0,30.09,NW,315,2.5,2.5,88,0.00,,---,0.00,VWS V14.01,2013-04-05 14:30:00,
2013-04-05 09:35:00,52.3,47.6,30.09,NNW,338,2.5,3.6,84,0.00,,---,0.00,VWS V14.01,2013-04-05 14:35:00,
2013-04-05 09:40:00,52.6,48.2,30.09,NNE,22,0.0,0.9,85,0.00,,---,0.00,VWS V14.01,2013-04-05 14:40:00,
2013-04-05 09:45:00,53.0,48.0,30.09,WNW,292,2.9,3.4,83,0.00,,---,0.00,VWS V14.01,2013-04-05 14:45:00,
2013-04-05 09:50:00,52.8,47.1,30.09,NNW,338,4.3,4.3,81,0.00,,---,0.00,VWS V14.01,2013-04-05 14:50:00,
2013-04-05 09:55:00,52.8,47.1,30.09,NE,45,4.0,5.6,81,0.00,,---,0.00,VWS V14.01,2013-04-05 14:55:00,
2013-04-05 10:00:00,53.3,47.0,30.09,NE,45,1.3,3.1,79,0.00,,---,0.00,VWS V14.01,2013-04-05 15:00:00,
2013-04-05 10:05:00,53.9,47.2,30.09,North,0,2.5,4.9,78,0.00,,---,0.00,VWS V14.01,2013-04-05 15:05:00,
2013-04-05 10:10:00,54.4,48.0,30.09,NNE,22,3.4,3.4,79,0.00,,---,0.00,VWS V14.01,2013-04-05 15:10:00,
2013-04-05 10:15:00,55.5,47.7,30.09,ENE,68,0.0,2.9,75,0.00,,---,0.00,VWS V14.01,2013-04-05 15:15:00,
2013-04-05 10:20:00,57.3,48.7,30.09,North,0,3.6,3.6,73,0.00,,---,0.00,VWS V14.01,2013-04-05 15:20:00,
2013-04-05 10:25:00,56.0,47.2,30.09,NNE,22,3.4,3.4,72,0.00,,---,0.00,VWS V14.01,2013-04-05 15:25:00,
2013-04-05 10:30:00,55.9,47.0,30.09,NNE,22,0.0,0.0,72,0.00,,---,0.00,VWS V14.01,2013-04-05 15:30:00,
2013-04-05 10:35:00,55.3,46.8,30.09,NE,45,3.4,3.4,73,0.00,,---,0.00,VWS V14.01,2013-04-05 15:35:00,
2013-04-05 10:40:00,55.5,47.4,30.09,North,0,1.6,1.6,74,0.00,,---,0.00,VWS V14.01,2013-04-05 15:40:00,
2013-04-05 10:45:00,57.1,48.6,30.12,NNE,22,2.0,2.0,73,0.00,,---,0.00,VWS V14.01,2013-04-05 15:45:00,
2013-04-05 10:50:00,56.4,47.1,30.12,NNW,338,2.0,2.5,71,0.00,,---,0.00,VWS V14.01,2013-04-05 15:50:00,
2013-04-05 10:55:00,56.6,47.3,30.12,NW,315,4.0,4.0,71,0.00,,---,0.00,VWS V14.01,2013-04-05 15:55:00,
2013-04-05 11:00:00,57.1,47.8,30.12,NNE,22,2.9,3.1,71,0.00,,---,0.00,VWS V14.01,2013-04-05 16:00:00,
2013-04-05 11:05:00,57.8,48.5,30.12,North,0,0.0,1.6,71,0.00,,---,0.00,VWS V14.01,2013-04-05 16:05:00,
2013-04-05 11:10:00,58.0,47.9,30.12,NNE,22,2.9,4.3,69,0.00,,---,0.00,VWS V14.01,2013-04-05 16:10:00,
2013-04-05 11:15:00,58.0,47.5,30.12,North,0,2.5,3.6,68,0.00,,---,0.00,VWS V14.01,2013-04-05 16:15:00,
2013-04-05 11:20:00,58.6,47.7,30.12,NNW,338,4.0,4.0,67,0.00,,---,0.00,VWS V14.01,2013-04-05 16:20:00,
2013-04-05 11:25:00,59.1,48.2,30.12,NNW,338,0.0,1.6,67,0.00,,---,0.00,VWS V14.01,2013-04-05 16:25:00,
2013-04-05 11:30:00,58.7,46.6,30.12,NNE,22,2.5,2.7,64,0.00,,---,0.00,VWS V14.01,2013-04-05 16:30:00,
2013-04-05 11:35:00,59.6,46.6,30.12,North,0,2.7,3.8,62,0.00,,---,0.00,VWS V14.01,2013-04-05 16:35:00,
2013-04-05 11:40:00,61.4,49.2,30.12,NW,315,3.1,3.1,64,0.00,,---,0.00,VWS V14.01,2013-04-05 16:40:00,
2013-04-05 11:45:00,61.1,47.1,30.12,NW,315,2.7,5.8,60,0.00,,---,0.00,VWS V14.01,2013-04-05 16:45:00,
2013-04-05 11:50:00,61.1,48.0,30.12,NNE,22,1.6,3.4,62,0.00,,---,0.00,VWS V14.01,2013-04-05 16:50:00,
2013-04-05 11:55:00,62.9,48.3,30.12,ENE,68,2.5,3.8,59,0.00,,---,0.00,VWS V14.01,2013-04-05 16:55:00,
2013-04-05 12:00:00,61.4,46.1,30.09,North,0,4.9,8.5,57,0.00,,---,0.00,VWS V14.01,2013-04-05 17:00:00,
2013-04-05 12:06:00,61.4,47.5,30.09,NE,45,1.3,3.4,60,0.00,,---,0.00,VWS V14.01,2013-04-05 17:06:00,
2013-04-05 12:11:00,62.5,48.0,30.09,NNW,338,1.3,2.9,59,0.00,,---,0.00,VWS V14.01,2013-04-05 17:11:00,
2013-04-05 12:16:00,62.9,47.4,30.09,ENE,68,3.1,5.4,57,0.00,,---,0.00,VWS V14.01,2013-04-05 17:16:00,
2013-04-05 12:21:00,61.6,46.2,30.09,NNW,338,4.7,6.5,57,0.00,,---,0.00,VWS V14.01,2013-04-05 17:21:00,
2013-04-05 12:26:00,60.9,46.0,30.09,WSW,248,4.3,4.7,58,0.00,,---,0.00,VWS V14.01,2013-04-05 17:26:00,
2013-04-05 12:31:00,62.0,48.0,30.09,North,0,0.9,3.4,60,0.00,,---,0.00,VWS V14.01,2013-04-05 17:31:00,
2013-04-05 12:36:00,62.5,47.6,30.09,NNW,338,3.6,6.0,58,0.00,,---,0.00,VWS V14.01,2013-04-05 17:36:00,
2013-04-05 12:41:00,61.8,47.3,30.09,NNE,22,1.6,2.7,59,0.00,,---,0.00,VWS V14.01,2013-04-05 17:41:00,
2013-04-05 12:46:00,62.2,47.2,30.09,North,0,3.6,5.4,58,0.00,,---,0.00,VWS V14.01,2013-04-05 17:46:00,
2013-04-05 12:51:00,63.2,48.7,30.09,NNE,22,1.3,2.2,59,0.00,,---,0.00,VWS V14.01,2013-04-05 17:51:00,
2013-04-05 12:56:00,64.3,48.3,30.09,North,0,2.7,3.6,56,0.00,,---,0.00,VWS V14.01,2013-04-05 17:56:00,
2013-04-05 13:01:00,63.4,46.5,30.09,West,270,7.8,7.8,54,0.00,,---,0.00,VWS V14.01,2013-04-05 18:01:00,
2013-04-05 13:07:00,62.5,46.6,30.09,NNW,338,3.4,3.4,56,0.00,,---,0.00,VWS V14.01,2013-04-05 18:07:00,
2013-04-05 13:11:00,63.4,47.5,30.09,East,90,3.4,3.4,56,0.00,,---,0.00,VWS V14.01,2013-04-05 18:11:00,
2013-04-05 13:17:00,63.8,46.8,30.09,NNW,338,2.0,4.9,54,0.00,,---,0.00,VWS V14.01,2013-04-05 18:17:00,
2013-04-05 13:22:00,63.2,46.8,30.09,NE,45,3.6,4.0,55,0.00,,---,0.00,VWS V14.01,2013-04-05 18:22:00,
2013-04-05 13:27:00,64.0,47.5,30.09,North,0,1.3,3.6,55,0.00,,---,0.00,VWS V14.01,2013-04-05 18:27:00,
2013-04-05 13:32:00,64.0,46.0,30.09,NNW,338,2.7,4.3,52,0.00,,---,0.00,VWS V14.01,2013-04-05 18:32:00,
2013-04-05 13:37:00,64.0,47.5,30.09,WNW,292,1.1,1.1,55,0.00,,---,0.00,VWS V14.01,2013-04-05 18:37:00,
2013-04-05 13:42:00,64.0,47.5,30.09,NNW,338,2.5,3.6,55,0.00,,---,0.00,VWS V14.01,2013-04-05 18:42:00,
2013-04-05 13:47:00,64.0,47.5,30.06,WSW,248,0.0,2.2,55,0.00,,---,0.00,VWS V14.01,2013-04-05 18:47:00,
2013-04-05 13:52:00,64.0,47.5,30.06,NNE,22,2.7,2.9,55,0.00,,---,0.00,VWS V14.01,2013-04-05 18:52:00,
2013-04-05 13:57:00,64.0,47.5,30.06,NNW,338,4.3,5.4,55,0.00,,---,0.00,VWS V14.01,2013-04-05 18:57:00,
2013-04-05 14:02:00,64.0,47.5,30.09,North,0,5.4,5.4,55,0.00,,---,0.00,VWS V14.01,2013-04-05 19:02:00,
2013-04-05 14:07:00,64.0,47.5,30.09,ESE,112,2.5,2.5,55,0.00,,---,0.00,VWS V14.01,2013-04-05 19:07:00,
2013-04-05 14:12:00,67.7,47.9,30.09,NNE,22,2.5,2.7,49,0.00,,---,0.00,VWS V14.01,2013-04-05 19:12:00,
2013-04-05 14:17:00,67.7,47.9,30.06,NE,45,1.6,1.6,49,0.00,,---,0.00,VWS V14.01,2013-04-05 19:17:00,
2013-04-05 14:22:00,67.7,47.9,30.06,NNW,338,4.7,4.9,49,0.00,,---,0.00,VWS V14.01,2013-04-05 19:22:00,
2013-04-05 14:27:00,69.7,48.6,30.06,NNE,22,3.6,3.6,47,0.00,,---,0.00,VWS V14.01,2013-04-05 19:27:00,
2013-04-05 14:32:00,69.7,48.6,30.06,NNW,338,3.8,6.5,47,0.00,,---,0.00,VWS V14.01,2013-04-05 19:32:00,
2013-04-05 14:37:00,71.3,49.5,30.06,NNE,22,2.2,2.2,46,0.00,,---,0.00,VWS V14.01,2013-04-05 19:37:00,
2013-04-05 14:42:00,71.2,47.5,30.06,NNE,22,5.8,5.8,43,0.00,,---,0.00,VWS V14.01,2013-04-05 19:42:00,
2013-04-05 14:47:00,71.0,47.4,30.06,NE,45,3.6,3.8,43,0.00,,---,0.00,VWS V14.01,2013-04-05 19:47:00,
2013-04-05 14:52:00,70.4,46.3,30.06,ENE,68,3.8,6.5,42,0.00,,---,0.00,VWS V14.01,2013-04-05 19:52:00,
2013-04-05 14:57:00,71.0,47.4,30.06,NW,315,2.0,2.9,43,0.00,,---,0.00,VWS V14.01,2013-04-05 19:57:00,
2013-04-05 15:03:00,70.6,47.7,30.06,WSW,248,0.0,0.9,44,0.00,,---,0.00,VWS V14.01,2013-04-05 20:03:00,
2013-04-05 15:08:00,71.7,48.0,30.06,WNW,292,3.1,3.6,43,0.00,,---,0.00,VWS V14.01,2013-04-05 20:08:00,
2013-04-05 15:13:00,71.5,47.9,30.06,NNW,338,3.8,5.8,43,0.00,,---,0.00,VWS V14.01,2013-04-05 20:13:00,
2013-04-05 15:18:00,71.0,46.8,30.06,NNE,22,3.8,5.4,42,0.00,,---,0.00,VWS V14.01,2013-04-05 20:18:00,
2013-04-05 15:23:00,70.1,46.0,30.06,North,0,2.7,2.7,42,0.00,,---,0.00,VWS V14.01,2013-04-05 20:23:00,
2013-04-05 15:28:00,71.0,47.4,30.06,NNW,338,4.3,4.3,43,0.00,,---,0.00,VWS V14.01,2013-04-05 20:28:00,
2013-04-05 15:33:00,71.0,46.8,30.06,NNE,22,4.9,5.8,42,0.00,,---,0.00,VWS V14.01,2013-04-05 20:33:00,
2013-04-05 15:38:00,70.6,46.4,30.06,North,0,1.6,2.7,42,0.00,,---,0.00,VWS V14.01,2013-04-05 20:38:00,
2013-04-05 15:43:00,71.0,46.8,30.06,WNW,292,4.5,5.8,42,0.00,,---,0.00,VWS V14.01,2013-04-05 20:43:00,
2013-04-05 15:48:00,71.5,47.9,30.06,NNW,338,4.0,4.0,43,0.00,,---,0.00,VWS V14.01,2013-04-05 20:48:00,
2013-04-05 15:53:00,71.0,46.1,30.06,NNE,22,1.6,5.6,41,0.00,,---,0.00,VWS V14.01,2013-04-05 20:53:00,
2013-04-05 15:58:00,71.3,46.5,30.03,NNW,338,3.4,3.6,41,0.00,,---,0.00,VWS V14.01,2013-04-05 20:58:00,
2013-04-05 16:03:00,70.3,44.8,30.03,North,0,2.5,2.9,40,0.00,,---,0.00,VWS V14.01,2013-04-05 21:03:00,
2013-04-05 16:08:00,70.6,46.4,30.03,NE,45,1.6,2.7,42,0.00,,---,0.00,VWS V14.01,2013-04-05 21:08:00,
2013-04-05 16:13:00,70.1,45.3,30.03,North,0,2.9,2.9,41,0.00,,---,0.00,VWS V14.01,2013-04-05 21:13:00,
2013-04-05 16:18:00,70.4,45.6,30.03,NNW,338,2.7,2.7,41,0.00,,---,0.00,VWS V14.01,2013-04-05 21:18:00,
2013-04-05 16:23:00,69.7,44.3,30.03,WNW,292,3.1,3.1,40,0.00,,---,0.00,VWS V14.01,2013-04-05 21:23:00,
2013-04-05 16:28:00,69.5,44.2,30.03,North,0,0.9,0.9,40,0.00,,---,0.00,VWS V14.01,2013-04-05 21:28:00,
2013-04-05 16:33:00,69.7,43.7,30.03,NNE,22,2.7,2.7,39,0.00,,---,0.00,VWS V14.01,2013-04-05 21:33:00,
2013-04-05 16:38:00,69.5,42.2,30.03,NW,315,3.4,3.4,37,0.00,,---,0.00,VWS V14.01,2013-04-05 21:38:00,
2013-04-05 16:43:00,70.3,43.5,30.03,NNW,338,3.4,3.4,38,0.00,,---,0.00,VWS V14.01,2013-04-05 21:43:00,
2013-04-05 16:48:00,70.3,43.5,30.03,NNE,22,2.5,3.1,38,0.00,,---,0.00,VWS V14.01,2013-04-05 21:48:00,
2013-04-05 16:53:00,70.3,43.5,30.03,NNW,338,3.6,3.8,38,0.00,,---,0.00,VWS V14.01,2013-04-05 21:53:00,
2013-04-05 16:59:00,70.8,44.0,30.03,WNW,292,3.8,5.6,38,0.00,,---,0.00,VWS V14.01,2013-04-05 21:59:00,
2013-04-05 17:04:00,69.7,42.3,30.03,North,0,3.1,4.9,37,0.00,,---,0.00,VWS V14.01,2013-04-05 22:04:00,
2013-04-05 17:09:00,69.7,41.6,30.03,NW,315,3.8,3.8,36,0.00,,---,0.00,VWS V14.01,2013-04-05 22:09:00,
2013-04-05 17:14:00,69.9,42.5,30.03,WNW,292,2.2,2.2,37,0.00,,---,0.00,VWS V14.01,2013-04-05 22:14:00,
2013-04-05 17:19:00,69.4,42.0,30.03,North,0,2.0,3.4,37,0.00,,---,0.00,VWS V14.01,2013-04-05 22:19:00,
2013-04-05 17:24:00,68.5,41.2,30.03,North,0,3.4,3.4,37,0.00,,---,0.00,VWS V14.01,2013-04-05 22:24:00,
2013-04-05 17:29:00,67.6,41.1,30.06,NNE,22,2.9,3.1,38,0.00,,---,0.00,VWS V14.01,2013-04-05 22:29:00,
2013-04-05 17:34:00,67.0,41.9,30.06,NNE,22,2.5,2.5,40,0.00,,---,0.00,VWS V14.01,2013-04-05 22:34:00,
2013-04-05 17:39:00,66.5,42.1,30.06,NW,315,3.1,6.3,41,0.00,,---,0.00,VWS V14.01,2013-04-05 22:39:00,
2013-04-05 17:44:00,65.9,42.2,30.03,North,0,1.6,2.0,42,0.00,,---,0.00,VWS V14.01,2013-04-05 22:44:00,
2013-04-05 17:49:00,65.6,43.1,30.03,WNW,292,2.2,2.9,44,0.00,,---,0.00,VWS V14.01,2013-04-05 22:49:00,
2013-04-05 17:54:00,65.2,42.8,30.03,North,0,3.6,3.6,44,0.00,,---,0.00,VWS V14.01,2013-04-05 22:54:00,
2013-04-05 17:59:00,64.9,42.5,30.03,NW,315,5.6,5.6,44,0.00,,---,0.00,VWS V14.01,2013-04-05 22:59:00,
2013-04-05 18:04:00,64.5,42.7,30.03,NNW,338,2.2,2.7,45,0.00,,---,0.00,VWS V14.01,2013-04-05 23:04:00,
2013-04-05 18:09:00,64.1,42.4,30.03,North,0,3.8,5.4,45,0.00,,---,0.00,VWS V14.01,2013-04-05 23:09:00,
2013-04-05 18:14:00,64.0,42.2,30.03,West,270,2.9,4.0,45,0.00,,---,0.00,VWS V14.01,2013-04-05 23:14:00,
2013-04-05 18:19:00,63.8,42.6,30.03,NNW,338,2.2,2.2,46,0.00,,---,0.00,VWS V14.01,2013-04-05 23:19:00,
2013-04-05 18:25:00,63.6,42.5,30.03,NNW,338,0.0,2.7,46,0.00,,---,0.00,VWS V14.01,2013-04-05 23:25:00,
2013-04-05 18:30:00,63.2,42.7,30.03,WNW,292,1.6,3.8,47,0.00,,---,0.00,VWS V14.01,2013-04-05 23:30:00,
2013-04-05 18:35:00,63.1,43.1,30.03,NNW,338,3.8,3.8,48,0.00,,---,0.00,VWS V14.01,2013-04-05 23:35:00,
2013-04-05 18:40:00,62.3,43.5,30.03,NNW,338,1.1,2.7,50,0.00,,---,0.00,VWS V14.01,2013-04-05 23:40:00,
2013-04-05 18:45:00,62.2,43.8,30.06,NNW,338,1.3,3.1,51,0.00,,---,0.00,VWS V14.01,2013-04-05 23:45:00,
2013-04-05 18:50:00,61.6,44.3,30.06,WNW,292,0.0,0.0,53,0.00,,---,0.00,VWS V14.01,2013-04-05 23:50:00,
2013-04-05 18:55:00,60.7,44.5,30.06,NW,315,0.0,1.3,55,0.00,,---,0.00,VWS V14.01,2013-04-05 23:55:00,
2013-04-05 19:00:00,60.2,44.4,30.06,WNW,292,0.0,0.0,56,0.00,,---,0.00,VWS V14.01,2013-04-06 00:00:00,
2013-04-05 19:05:00,59.6,44.4,30.06,WNW,292,0.0,0.0,57,0.00,,---,0.00,VWS V14.01,2013-04-06 00:05:00,
2013-04-05 19:10:00,59.3,44.5,30.06,WNW,292,0.0,0.0,58,0.00,,---,0.00,VWS V14.01,2013-04-06 00:10:00,
2013-04-05 19:15:00,58.6,44.3,30.03,WNW,292,0.0,0.0,59,0.00,,---,0.00,VWS V14.01,2013-04-06 00:15:00,
2013-04-05 19:20:00,58.2,44.4,30.03,WNW,292,0.0,0.0,60,0.00,,---,0.00,VWS V14.01,2013-04-06 00:20:00,
2013-04-05 19:25:00,57.7,44.3,30.03,WNW,292,0.0,0.0,61,0.00,,---,0.00,VWS V14.01,2013-04-06 00:25:00,
2013-04-05 19:30:00,57.3,44.8,30.06,WNW,292,0.0,0.0,63,0.00,,---,0.00,VWS V14.01,2013-04-06 00:30:00,
2013-04-05 19:35:00,56.9,44.9,30.06,WNW,292,0.0,0.0,64,0.00,,---,0.00,VWS V14.01,2013-04-06 00:35:00,
2013-04-05 19:40:00,56.2,45.0,30.06,WNW,292,0.0,0.0,66,0.00,,---,0.00,VWS V14.01,2013-04-06 00:40:00,
2013-04-05 19:45:00,55.7,45.3,30.06,WNW,292,0.0,0.0,68,0.00,,---,0.00,VWS V14.01,2013-04-06 00:45:00,
2013-04-05 19:50:00,55.3,45.0,30.06,WNW,292,0.0,0.0,68,0.00,,---,0.00,VWS V14.01,2013-04-06 00:50:00,
2013-04-05 19:55:00,55.0,45.4,30.06,WNW,292,0.0,0.0,70,0.00,,---,0.00,VWS V14.01,2013-04-06 00:55:00,
2013-04-05 20:00:00,54.6,45.0,30.06,WNW,292,0.0,0.0,70,0.00,,---,0.00,VWS V14.01,2013-04-06 01:00:00,
2013-04-05 20:05:00,54.2,45.4,30.06,WNW,292,0.0,0.0,72,0.00,,---,0.00,VWS V14.01,2013-04-06 01:05:00,
2013-04-05 20:10:00,53.9,45.4,30.06,WNW,292,0.0,0.0,73,0.00,,---,0.00,VWS V14.01,2013-04-06 01:10:00,
2013-04-05 20:15:00,53.5,45.1,30.06,WNW,292,0.0,0.0,73,0.00,,---,0.00,VWS V14.01,2013-04-06 01:15:00,
2013-04-05 20:20:00,53.2,45.1,30.06,WNW,292,0.0,0.0,74,0.00,,---,0.00,VWS V14.01,2013-04-06 01:20:00,
2013-04-05 20:25:00,52.8,44.8,30.06,WNW,292,0.0,0.0,74,0.00,,---,0.00,VWS V14.01,2013-04-06 01:25:00,
2013-04-05 20:30:00,52.6,45.3,30.06,WNW,292,0.0,0.0,76,0.00,,---,0.00,VWS V14.01,2013-04-06 01:30:00,
2013-04-05 20:35:00,52.3,45.6,30.06,WNW,292,0.0,0.0,78,0.00,,---,0.00,VWS V14.01,2013-04-06 01:35:00,
2013-04-05 20:40:00,52.1,45.4,30.06,WNW,292,0.0,0.0,78,0.00,,---,0.00,VWS V14.01,2013-04-06 01:40:00,
2013-04-05 20:45:00,51.9,44.9,30.06,WNW,292,0.0,0.0,77,0.00,,---,0.00,VWS V14.01,2013-04-06 01:45:00,
2013-04-05 20:50:00,51.7,45.4,30.06,WNW,292,0.0,0.0,79,0.00,,---,0.00,VWS V14.01,2013-04-06 01:50:00,
2013-04-05 20:55:00,51.5,45.6,30.06,WNW,292,0.0,0.0,80,0.00,,---,0.00,VWS V14.01,2013-04-06 01:55:00,
2013-04-05 21:00:00,51.2,45.6,30.09,WNW,292,0.0,0.0,81,0.00,,---,0.00,VWS V14.01,2013-04-06 02:00:00,
2013-04-05 21:05:00,51.0,45.4,30.09,WNW,292,0.0,0.0,81,0.00,,---,0.00,VWS V14.01,2013-04-06 02:05:00,
2013-04-05 21:10:00,50.8,45.5,30.09,WNW,292,0.0,0.0,82,0.00,,---,0.00,VWS V14.01,2013-04-06 02:10:00,
2013-04-05 21:15:00,50.6,45.7,30.06,WNW,292,0.0,0.0,83,0.00,,---,0.00,VWS V14.01,2013-04-06 02:15:00,
2013-04-05 21:21:00,50.5,45.5,30.06,WNW,292,0.0,0.0,83,0.00,,---,0.00,VWS V14.01,2013-04-06 02:21:00,
2013-04-05 21:26:00,50.1,45.2,30.06,WNW,292,0.0,0.0,83,0.00,,---,0.00,VWS V14.01,2013-04-06 02:26:00,
2013-04-05 21:31:00,49.9,45.0,30.06,WNW,292,0.0,0.0,83,0.00,,---,0.00,VWS V14.01,2013-04-06 02:31:00,
2013-04-05 21:36:00,49.7,45.1,30.06,WNW,292,0.0,0.0,84,0.00,,---,0.00,VWS V14.01,2013-04-06 02:36:00,
2013-04-05 21:41:00,49.7,45.4,30.06,WNW,292,0.0,0.0,85,0.00,,---,0.00,VWS V14.01,2013-04-06 02:41:00,
2013-04-05 21:46:00,49.6,45.2,30.06,WNW,292,0.0,0.0,85,0.00,,---,0.00,VWS V14.01,2013-04-06 02:46:00,
2013-04-05 21:51:00,49.6,45.2,30.06,WNW,292,0.0,0.0,85,0.00,,---,0.00,VWS V14.01,2013-04-06 02:51:00,
2013-04-05 21:56:00,49.4,45.1,30.06,WNW,292,0.0,0.0,85,0.00,,---,0.00,VWS V14.01,2013-04-06 02:56:00,
2013-04-05 22:01:00,49.2,45.2,30.09,WNW,292,0.0,0.0,86,0.00,,---,0.00,VWS V14.01,2013-04-06 03:01:00,
2013-04-05 22:06:00,49.0,45.0,30.09,WNW,292,0.0,0.0,86,0.00,,---,0.00,VWS V14.01,2013-04-06 03:06:00,
2013-04-05 22:12:00,48.8,44.8,30.09,WNW,292,0.0,0.0,86,0.00,,---,0.00,VWS V14.01,2013-04-06 03:12:00,
2013-04-05 22:17:00,48.7,45.0,30.09,WNW,292,0.0,0.0,87,0.00,,---,0.00,VWS V14.01,2013-04-06 03:17:00,
2013-04-05 22:22:00,48.7,45.0,30.09,WNW,292,0.0,0.0,87,0.00,,---,0.00,VWS V14.01,2013-04-06 03:22:00,
2013-04-05 22:27:00,48.5,44.8,30.09,WNW,292,0.0,0.0,87,0.00,,---,0.00,VWS V14.01,2013-04-06 03:27:00,
2013-04-05 22:32:00,48.3,44.6,30.09,WNW,292,0.0,0.0,87,0.00,,---,0.00,VWS V14.01,2013-04-06 03:32:00,
2013-04-05 22:37:00,48.3,44.9,30.09,WNW,292,0.0,0.0,88,0.00,,---,0.00,VWS V14.01,2013-04-06 03:37:00,
2013-04-05 22:42:00,48.3,44.9,30.09,WNW,292,0.0,0.0,88,0.00,,---,0.00,VWS V14.01,2013-04-06 03:42:00,
2013-04-05 22:47:00,48.1,44.4,30.09,WNW,292,0.0,0.0,87,0.00,,---,0.00,VWS V14.01,2013-04-06 03:47:00,
2013-04-05 22:52:00,48.1,44.7,30.09,WNW,292,0.0,0.0,88,0.00,,---,0.00,VWS V14.01,2013-04-06 03:52:00,
2013-04-05 22:57:00,47.9,44.9,30.09,WNW,292,0.0,0.0,89,0.00,,---,0.00,VWS V14.01,2013-04-06 03:57:00,
2013-04-05 23:00:00,47.9,44.9,30.06,WNW,292,0.0,0.0,89,0.00,,---,0.00,VWS V14.01,2013-04-06 04:00:00,
2013-04-05 23:05:00,47.8,44.4,30.06,WNW,292,0.0,0.0,88,0.00,,---,0.00,VWS V14.01,2013-04-06 04:05:00,
2013-04-05 23:10:00,47.8,44.4,30.06,WNW,292,0.0,0.0,88,0.00,,---,0.00,VWS V14.01,2013-04-06 04:10:00,
2013-04-05 23:15:00,47.6,44.5,30.09,WNW,292,0.0,0.0,89,0.00,,---,0.00,VWS V14.01,2013-04-06 04:15:00,
2013-04-05 23:20:00,47.4,44.3,30.09,WNW,292,0.0,0.0,89,0.00,,---,0.00,VWS V14.01,2013-04-06 04:20:00,
2013-04-05 23:25:00,47.4,44.3,30.09,WNW,292,0.0,0.0,89,0.00,,---,0.00,VWS V14.01,2013-04-06 04:25:00,
2013-04-05 23:30:00,47.2,44.4,30.06,WNW,292,0.0,0.0,90,0.00,,---,0.00,VWS V14.01,2013-04-06 04:30:00,
2013-04-05 23:35:00,47.0,44.3,30.06,WNW,292,0.0,0.0,90,0.00,,---,0.00,VWS V14.01,2013-04-06 04:35:00,
2013-04-05 23:41:00,47.0,44.3,30.06,WNW,292,0.0,0.0,90,0.00,,---,0.00,VWS V14.01,2013-04-06 04:41:00,
2013-04-05 23:45:00,46.9,44.1,30.06,WNW,292,0.0,0.0,90,0.00,,---,0.00,VWS V14.01,2013-04-06 04:45:00,
2013-04-05 23:51:00,46.5,43.7,30.06,WNW,292,0.0,0.0,90,0.00,,---,0.00,VWS V14.01,2013-04-06 04:51:00,
2013-04-05 23:56:00,46.5,43.7,30.06,WNW,292,0.0,0.0,90,0.00,,---,0.00,VWS V14.01,2013-04-06 04:56:00,